Location: Drochov
(48.6980°N, 14.4936°E)
Time: 22:02:36
(UTC+00:00)

Daily predictions for brighter satellites

Satellite Brightness Start Highest point End
(mag) Time Altitude Azimuth Time Altitude Azimuth Time Altitude Azimuth
Cosmos 2251 Rocket 4.4 15:34:05 10° N 15:38:42 28° NE 15:43:18 10° ESE
Cosmos 614 Rocket 4.3 15:34:12 10° NNW 15:39:26 75° WSW 15:44:34 10° SSE
Cosmos 405 Rocket 2.7 15:36:53 10° S 15:40:38 67° E 15:44:29 10° NNE
ISS -3.0 15:40:46 10° WNW 15:44:03 55° SSW 15:47:20 10° SE
SJ-11-01 4.2 15:42:03 10° SSE 15:46:40 73° ENE 15:51:19 10° N
NOSS 3-4 (A) 4.5 15:42:12 10° NW 15:49:05 65° SW 15:56:58 10° SSE
Lacrosse 5 3.8 15:46:41 10° SSE 15:49:06 14° ESE 15:51:33 10° E
NOSS 3-4 (C) 4.5 15:42:21 10° NW 15:49:10 65° SW 15:56:57 10° SSE
Cosmos 1862 3.8 15:45:26 10° NNW 15:49:18 63° W 15:53:10 10° S
Cosmos 724 4.5 15:44:37 10° SSW 15:50:48 74° SE 15:56:55 10° NE
Cosmos 2082 3.8 15:45:27 10° SSW 15:50:59 65° ESE 15:56:34 10° NNE
Cosmos 2142 Rocket 4.4 15:45:20 10° N 15:51:28 71° E 15:57:36 10° SSE
Cosmos 2151 3.0 15:47:51 10° N 15:52:09 84° E 15:56:24 10° S
Cosmos-2242 4.0 15:50:46 10° SE 15:54:22 26° E 15:57:58 10° NNE
COSMO-SKYMED 1 4.4 15:52:45 10° ENE 15:54:43 13° E 15:56:39 10° ESE
Lacrosse 4 Rocket 1.8 15:51:26 10° NNW 15:55:38 44° NE 15:59:43 10° ESE
USA 234 4.2 15:50:44 10° ENE 15:56:26 31° SE 16:02:06 10° S
Cosmos 2058 Rocket 3.0 15:52:13 10° S 15:56:38 75° E 16:01:03 10° NNE
SL-08 RB Rocket 4.1 15:54:19 10° S 15:58:45 69° WSW 16:03:16 10° NNW
Cosmos 2279 Rocket 4.0 15:53:39 10° N 15:59:56 89° ENE 16:06:10 10° S
Cosmos 1726 Rocket 4.4 15:59:21 10° SSW 16:03:41 52° WNW 16:08:02 10° N
CZ-2D R/B 3.3 16:00:33 10° S 16:04:13 79° WSW 16:07:54 10° NNW
APEX 4.2 16:02:26 10° SSE 16:04:31 18° ESE 16:05:47 14° ENE
Cosmos 1812 3.4 16:06:23 10° SSE 16:09:38 31° E 16:12:55 10° NNE
AQUARIUS 4.2 16:08:48 10° SSE 16:13:10 57° ENE 16:17:33 10° N
YAOGAN 11 4.1 16:09:56 10° NNE 16:14:30 79° ESE 16:19:03 10° SSW
CZ-2C R/B 2.8 16:12:13 10° S 16:15:45 75° WSW 16:19:22 10° NNW
USA 276 2.0 16:13:29 10° SW 16:15:49 47° SSE 16:17:13 20° E
Cosmos 1437 Rocket 4.1 16:13:38 10° NNW 16:17:08 40° W 16:20:41 10° SSW
Cosmos 2263 Rocket 2.2 16:11:37 10° SSW 16:17:11 87° ESE 16:22:49 10° NNE
Cosmos 1844 Rocket 3.9 16:13:43 10° SSE 16:17:46 21° E 16:20:21 15° ENE
CORIOLIS 4.1 16:15:13 10° SSE 16:20:34 83° ENE 16:25:59 10° NNW
Nadezhda 4 Rocket 4.0 16:14:44 10° S 16:20:43 58° E 16:26:42 10° NNE
ERS-2 3.9 16:19:43 10° SSW 16:22:17 27° W 16:24:51 10° NW
USA 307 3.3 16:21:16 10° WNW 16:25:05 56° SW 16:28:48 10° SE
Cosmos 2227 Rocket 3.6 16:20:30 10° WSW 16:25:38 35° NW 16:30:49 10° NNE
Meteor 1-20 Rocket 4.2 16:21:56 10° N 16:27:29 66° ENE 16:33:07 10° SSE
Cosmos 1140 Rocket 3.4 16:23:01 10° NNW 16:28:14 77° ENE 16:33:22 10° SSE
YAOGAN 1 4.0 16:29:59 18° NE 16:29:59 18° NE 16:32:10 10° NNE
ADEOS 4.2 16:26:09 10° SE 16:30:44 32° ENE 16:35:20 10° N
Cosmos 1933 4.3 16:27:47 10° SE 16:31:05 25° E 16:32:19 22° ENE
Cosmos 1666 3.3 16:30:56 10° NNW 16:34:23 54° W 16:37:50 10° S
Cosmos 1603 3.6 16:32:37 10° NNW 16:38:20 73° ENE 16:43:58 10° SE
DMSP B5D2-2 4.3 16:33:18 10° N 16:38:32 74° WNW 16:43:43 10° SSW
CBERS 1 LM4 rocket 4.4 16:36:15 10° SE 16:40:53 53° ENE 16:45:30 10° N
Meteor 1-31 Rocket 3.1 16:39:01 10° S 16:42:41 64° WSW 16:46:24 10° NNW
SKYMED 2 4.1 16:40:54 21° NE 16:43:15 36° E 16:47:14 10° SSE
CZ-4B R/B 4.3 16:45:00 22° NE 16:45:00 22° NE 16:47:18 10° N
USA 306 4.4 16:46:45 10° WSW 16:47:50 13° SW 16:48:55 10° SSW
SL-08 R/B 4.0 16:46:51 27° ENE 16:47:58 30° E 16:52:01 10° SSE
ATLAS CENTAUR R/B 3.3 16:47:34 10° WNW 16:51:52 62° SW 17:00:13 10° SE
RESURS DK-1 3.1 16:52:43 10° NNW 16:56:12 32° NE 16:56:12 32° NE
USA 305 3.8 16:53:07 10° WNW 16:56:46 41° SW 17:00:21 10° SSE
Cosmos 676 Rocket 4.4 16:52:18 10° NNW 16:57:18 40° ENE 16:59:43 26° ESE
CZ-4B R/B 3.4 16:53:27 10° SSE 16:58:31 88° W 17:03:29 10° NNW
Cosmos 1782 2.7 16:57:36 10° S 17:01:26 62° E 17:03:03 32° NNE
Cosmos 1812 Rocket 3.5 16:57:31 10° S 17:01:52 83° W 17:06:15 10° N
Helios 1A 2.8 16:58:42 16° NNE 17:01:58 82° ESE 17:06:07 10° SSW
Cosmos 1943 3.9 16:56:40 10° NW 17:02:11 56° WSW 17:07:41 10° S
ATLAS 2AS CENTAUR R/B 2.7 16:58:00 10° NW 17:04:55 60° NE 17:09:09 23° ESE
NOAA 6 3.9 17:01:13 10° SSE 17:06:21 85° ENE 17:11:30 10° NNW
Radarsat Rocket 3.9 17:07:00 10° SSE 17:12:50 88° WSW 17:19:01 10° NNW
Cosmos 407 Rocket 3.9 17:08:25 10° NNW 17:13:31 63° WSW 17:18:32 10° S
CZ-4B DEB 4.4 17:11:06 19° SE 17:14:42 45° ENE 17:19:58 10° N
ADEOS Rocket 4.5 17:22:48 18° NNE 17:22:48 18° NNE 17:24:42 10° N
ISS -0.5 17:19:06 10° WSW 17:20:12 11° SW 17:21:17 10° SSW
Cosmos 2251 Rocket 4.4 17:16:03 10° NNW 17:21:14 52° WSW 17:26:25 10° S
Cosmos 220 Rocket 3.9 17:20:49 10° NNW 17:25:09 85° WSW 17:27:54 22° SSE
SME Rocket 4.3 17:21:35 10° SSE 17:27:19 69° ENE 17:36:19 10° NNW
Cosmos 2056 Rocket 3.5 17:22:33 10° S 17:27:50 60° ESE 17:28:45 52° ENE
Cosmos 1954 Rocket 3.8 17:22:55 10° NNW 17:28:13 77° ENE 17:31:28 24° SSE
COSMOS 2455 3.9 17:23:19 10° SSE 17:27:03 27° SE 17:27:03 27° SE
Timation 2 Rocket 3.8 17:22:56 10° SSW 17:28:49 65° ESE 17:30:41 43° NE
Cosmos 1844 3.7 17:23:21 10° SSW 17:29:02 63° ESE 17:30:24 48° ENE
Lacrosse 5 1.8 17:26:15 10° SW 17:31:14 65° SE 17:31:43 60° ESE
COSMO-SKYMED 1 2.6 17:29:31 33° N 17:31:25 77° WNW 17:35:45 10° SSW
Lacrosse 4 Rocket 3.7 17:30:17 10° NW 17:33:49 25° WSW 17:37:17 10° SSW
Cosmos 1833 Rocket 3.9 17:30:27 10° NNW 17:33:48 26° NNE 17:33:48 26° NNE
Cosmos 1553 Rocket 3.8 17:33:09 10° N 17:39:30 76° E 17:45:43 10° SSE
USA 234 3.2 17:37:35 43° ENE 17:40:00 88° SSE 17:46:33 10° WSW
PAYLOAD B 4.5 17:42:07 49° NNE 17:42:07 49° NNE 17:46:37 10° N
Cosmos 2221 2.8 17:37:42 10° S 17:41:02 55° S 17:41:02 55° S
Cosmos 2344 3.5 17:36:01 10° SW 17:43:31 79° NW 17:47:04 34° NE
Cosmos 1818 3.9 17:41:56 10° SW 17:47:20 63° NW 17:48:46 46° N
Cosmos 2026 Rocket 4.4 17:42:04 10° SSW 17:48:17 65° WNW 17:54:38 10° N
Cosmos 1371 Rocket 3.9 17:46:51 10° SSW 17:52:06 88° WNW 17:52:32 76° NNE
Cosmos 1844 Rocket 2.8 17:55:32 10° SW 18:01:04 69° WNW 18:02:02 57° N
Meteor 1-26 Rocket 4.4 17:56:03 10° SSW 18:01:35 70° WNW 18:04:18 32° N
Cosmos 2263 Rocket 4.2 17:57:38 10° W 18:01:52 22° NW 18:05:03 14° N
Cosmos 1766 Rocket 4.5 17:59:53 10° NNW 18:04:04 46° W 18:08:11 10° SSW
YAOGAN 1 4.2 18:07:03 26° NNW 18:07:03 26° NNW 18:09:05 10° NNW
Cosmos 1420 Rocket 4.3 18:02:54 10° SW 18:08:07 64° WNW 18:08:27 62° NW
Cosmos 2082 Rocket 4.3 18:08:23 10° N 18:09:22 14° N 18:09:22 14° N
Cosmos 1624 Rocket 4.4 18:10:47 10° SW 18:15:39 59° W 18:15:39 59° W
ATLAS 2AS CENTAUR R/B 3.8 18:49:21 10° NW 18:55:32 37° WSW 18:56:38 35° SW
Lacrosse 5 4.4 19:09:36 10° W 19:10:56 18° W 19:10:56 18° W
USA 234 4.5 19:24:56 36° WNW 19:24:56 36° WNW 19:28:58 10° W
